COSMOS 2491 DEB *, 45128

Orbit data source: Space-Track

COSMOS 2491 DEB *, 45128 is space debris in LEO originally from a launch on Wed, 25 Dec 2013 UTC launched from the Plesetsk Missile And Space Complex (PKMTR). Debris objects in space refer to the collection of defunct objects orbiting the Earth. Examples of debris include non-operational satellites, rocket bodies, and fragments generated from explosions, collisions, or faulty payload assembly.

Loading next visibility...
Identifier
45128, 2013-076AA
Orbit
LEO
Country
Flag of CISCIS
Related business
Manufacturer
TsNIIKhM
Mission
Spacecraft
Bus & Motor
Unknown
Mass
Unknown
Launch date (UTC)
2013-12-25 (13 years ago)
Launch vehicle
Unknown
Launch site
Plesetsk Missile And Space Complex (PKMTR)
Object type
Payload
Rocket body
Debris
Shape & HBR
Unknown shape, 0.1 m
Radar Cross Section
Small (<0.1 m²)

Expand to show TLE details & history
Last TLE update: 1 day ago

TLE from 1 day ago
0 COSMOS 2491 DEB *
1 45128U 13076AA  26208.59294823  .00002058  00000-0  60623-3 0  9992
2 45128  81.2083 317.2866 0023346 120.7063 239.6431 14.43224257 67874
Epoch: 2026-07-27T14:13Z
TLE epoch observation values (Epoch: 2026-07-27T14:13:50.727Z)
Latitude
0.00005°
Longitude
158.55094°
Altitude
759.247 km
Speed
7.47 km/s
True Right ascension
21h 09m 08s
True Declination
0° 00' 00"
Sunlit
Object was in full shadow at epoch
Visualization orbit readout
Latitude
Unknown
Longitude
Unknown
Altitude
Unknown
Speed
Unknown
Apparent Right ascension
Unknown
Apparent Declination
Unknown
Sunlit
N/A
Visualization observer readout
Local Sidereal Time
07:43:51
Azimuth
Unknown
Elevation
Unknown
Doppler factor
Unknown
Orbital elements
Apogee altitude
761.627 km
Perigee altitude
728.367 km
Semi-major axis
7,123.134 km
Eccentricity
0.00233
Inclination
81.2083°
RAAN
317.2866°
Arg. of periapsis
120.7063°
True anomaly
239.41259°
Mean anomaly
239.6431°
Eccentric anomaly
239.52781°
Mean motion
3.61024 °/min
Orbital period
99.72 mins
BSTAR
0.00060623
Loading maneuver chart data...
Computing Atmospheric mass density...
Loading historical data...
Loading historical data...
Loading historical data...
Loading historical data...
Loading historical data...
Loading historical data...
Loading historical data...

Documentation

Showing up to 5 results
|